Back to catalog

STARLINK-36593

AliveCommunicationsSSO
NORAD 67564·PAYLOAD·🇺🇸 United States

Launched Jan 25, 2026 from Vandenberg Space Force Base

Loading…

Next Passes (next 24 hours)

TLE

FreshSource: CelesTrak SupGP

Epoch: Sep 14, 2026, 16:04 UTC

1 67564C 26016D   26257.66993056  .00015418  00000+0  47845-3 0  2575
2 67564  97.2846 316.4095 0000928  98.5787  15.6332 15.33442353    11

Track STARLINK-36593 in real time with AllMySat

Download on the App Store